Location: Unspecified
(0.0000°N, 0.0000°E)
Time: 14:49:33
(UTC+00:00)

STARLINK-1664 - Visible Passes

Search period start: 15 December 2025 00:00
Search period end: 25 December 2025 00:00
Orbit: 546 x 548 km, 53.1° (Epoch: 14 December)

Date Brightness Start Highest point End Pass type
(mag) Time Alt. Az. Time Alt. Az. Time Alt. Az.
16 Dec 6.8 04:00:53 10° SSE 04:03:10 14° SE 04:05:26 10° E visible
17 Dec 6.1 03:53:37 10° S 03:56:51 22° SE 04:00:04 10° ENE visible
18 Dec 5.2 03:49:28 29° SSE 03:50:32 33° SE 03:54:15 10° ENE visible
18 Dec 5.5 05:28:13 10° WNW 05:29:50 12° NW 05:31:28 10° NNW visible
